Hinckley, MN

5:00 AM CDT on August 18, 2017 (GMT -0500)
Hinckley

Weather History for K04W - March, 2014

Change the Weather History Date:

Friday, March 14, 2014

  Actual Average (KJMR) Record (KJMR)
Temperature  
Mean Temperature 34 °F -  
Max Temperature 41 °F 38 °F 69 °F (2012)
Min Temperature 26 °F 16 °F -19 °F (1975)
Degree Days  
Heating Degree Days 32    
Moisture  
Dew Point 27 °F    
Average Humidity 74    
Maximum Humidity 93    
Minimum Humidity 57    
Precipitation  
Precipitation 0.00 in - - ()
Sea Level Pressure  
Sea Level Pressure 29.61 in    
Wind  
Wind Speed 9 mph (WNW)    
Max Wind Speed 21 mph    
Max Gust Speed 31 mph    
Visibility 10 miles    
Events      
Averages and records for this station are not official NWS values.
T = Trace of Precipitation, MM = Missing Value Source: NWS Daily Summary

Daily Weather History Graph

Daily Weather History Graph

Search for Another Location

Airport or City:

Trip Planner

Search our weather history database for the weather conditions in past years. The results will help you decide how hot, cold, wet, or windy it might be!

Date:

Astronomy

Mar. 14, 2014 Rise Set
Actual Time 7:26 AM CDT 7:16 PM CDT
Civil Twilight 6:56 AM CDT 7:45 PM CDT
Nautical Twilight 6:21 AM CDT 8:20 PM CDT
Astronomical Twilight 5:46 AM CDT 8:56 PM CDT
Moon 5:35 PM CDT (3/14) 6:11 AM CDT (3/14)
Length of Visible Light 12h 49m
Length of Day
11h 50m
Waxing Gibbous, 96% of the Moon is Illuminated
Mar 14
Waxing Gibbous
Mar 16
Full
Mar 23
Last Quarter
Mar 30
New
Apr 7
First Quarter

Hourly Weather History & Observations

Time (CDT) Temp. Windchill Dew Point Humidity Pressure Visibility Wind Dir Wind Speed Gust Speed Precip Events Conditions
12:02 AM 37.4 °F 32.1 °F 33.8 °F 87% 29.46 in 10.0 mi SW 6.9 mph - N/A   Clear
12:22 AM 37.4 °F 31.4 °F 35.6 °F 93% 29.46 in 10.0 mi SW 8.1 mph - N/A   Clear
12:42 AM 39.2 °F 33.6 °F 35.6 °F 87% 29.46 in 10.0 mi WSW 8.1 mph - N/A   Clear
1:02 AM 37.4 °F 31.4 °F 35.6 °F 93% 29.46 in 10.0 mi WSW 8.1 mph - N/A   Clear
1:22 AM 37.4 °F 32.1 °F 35.6 °F 93% 29.45 in 10.0 mi WSW 6.9 mph - N/A   Clear
1:42 AM 37.4 °F 32.1 °F 33.8 °F 87% 29.45 in 10.0 mi WSW 6.9 mph - N/A   Clear
2:02 AM 37.4 °F 32.1 °F 35.6 °F 93% 29.45 in 10.0 mi WSW 6.9 mph - N/A   Clear
2:22 AM 37.4 °F 32.8 °F 35.6 °F 93% 29.45 in 10.0 mi West 5.8 mph - N/A   Clear
2:42 AM 41.0 °F 34.7 °F 33.8 °F 76% 29.46 in 10.0 mi West 10.4 mph 16.1 mph N/A   Clear
3:02 AM 41.0 °F 36.4 °F 33.8 °F 76% 29.46 in 10.0 mi West 6.9 mph - N/A   Clear
3:23 AM 41.0 °F 36.4 °F 33.8 °F 76% 29.46 in 10.0 mi WNW 6.9 mph - N/A   Clear
3:42 AM 41.0 °F 36.4 °F 33.8 °F 76% 29.46 in 10.0 mi WNW 6.9 mph - N/A   Clear
4:02 AM 39.2 °F 34.2 °F 32.0 °F 75% 29.46 in 10.0 mi West 6.9 mph - N/A   Clear
4:23 AM 37.4 °F 32.8 °F 32.0 °F 81% 29.46 in 10.0 mi West 5.8 mph - N/A   Clear
4:42 AM 37.4 °F 33.8 °F 32.0 °F 81% 29.46 in 10.0 mi WNW 4.6 mph - N/A   Clear
5:02 AM 37.4 °F 32.1 °F 32.0 °F 81% 29.46 in 10.0 mi WNW 6.9 mph - N/A   Clear
5:23 AM 35.6 °F 31.7 °F 32.0 °F 87% 29.46 in 10.0 mi WNW 4.6 mph - N/A   Clear
5:42 AM 35.6 °F 29.9 °F 32.0 °F 87% 29.47 in 10.0 mi WNW 6.9 mph - N/A   Clear
6:02 AM 35.6 °F 29.9 °F 32.0 °F 87% 29.47 in 10.0 mi West 6.9 mph - N/A   Clear
6:23 AM 35.6 °F 29.9 °F 32.0 °F 87% 29.48 in 10.0 mi West 6.9 mph - N/A   Clear
6:42 AM 33.8 °F 27.0 °F 30.2 °F 87% 29.48 in 10.0 mi West 8.1 mph - N/A   Clear
7:02 AM 33.8 °F 26.4 °F 30.2 °F 87% 29.49 in 10.0 mi West 9.2 mph - N/A   Clear
7:23 AM 33.8 °F 25.8 °F 30.2 °F 87% 29.50 in 10.0 mi West 10.4 mph 17.3 mph N/A   Clear
7:42 AM 33.8 °F 26.4 °F 30.2 °F 87% 29.50 in 10.0 mi West 9.2 mph - N/A   Mostly Cloudy
8:03 AM 33.8 °F 26.4 °F 32.0 °F 93% 29.51 in 10.0 mi WNW 9.2 mph - N/A   Overcast
8:22 AM 35.6 °F 28.0 °F 32.0 °F 87% 29.51 in 10.0 mi West 10.4 mph - N/A   Overcast
8:42 AM 35.6 °F 28.6 °F 32.0 °F 87% 29.52 in 10.0 mi West 9.2 mph 17.3 mph N/A   Overcast
9:03 AM 35.6 °F 28.6 °F 32.0 °F 87% 29.52 in 10.0 mi West 9.2 mph - N/A   Overcast
9:22 AM 35.6 °F 29.9 °F 32.0 °F 87% 29.52 in 10.0 mi West 6.9 mph - N/A   Overcast
9:42 AM 35.6 °F 27.1 °F 32.0 °F 87% 29.53 in 10.0 mi West 12.7 mph 18.4 mph N/A   Overcast
10:03 AM 37.4 °F 30.3 °F 32.0 °F 81% 29.53 in 10.0 mi WNW 10.4 mph 17.3 mph N/A   Overcast
10:22 AM 37.4 °F 32.8 °F 32.0 °F 81% 29.54 in 10.0 mi WNW 5.8 mph - N/A   Overcast
10:42 AM 37.4 °F 31.4 °F 32.0 °F 81% 29.54 in 10.0 mi WNW 8.1 mph 16.1 mph N/A   Overcast
11:03 AM 39.2 °F 31.6 °F 32.0 °F 75% 29.54 in 10.0 mi NW 12.7 mph 18.4 mph N/A   Overcast
11:22 AM 41.0 °F 32.5 °F 30.2 °F 65% 29.55 in 10.0 mi NW 17.3 mph 28.8 mph N/A   Overcast
11:42 AM 41.0 °F 33.5 °F 30.2 °F 65% 29.56 in 10.0 mi WNW 13.8 mph 18.4 mph N/A   Overcast
12:03 PM 41.0 °F 34.3 °F 30.2 °F 65% 29.56 in 10.0 mi WNW 11.5 mph 25.3 mph N/A   Overcast
12:22 PM 41.0 °F 33.9 °F 30.2 °F 65% 29.57 in 10.0 mi WNW 12.7 mph 19.6 mph N/A   Overcast
12:42 PM 41.0 °F 35.8 °F 30.2 °F 65% 29.57 in 10.0 mi WNW 8.1 mph 23.0 mph N/A   Overcast
1:03 PM 41.0 °F 33.9 °F 28.4 °F 61% 29.58 in 10.0 mi WNW 12.7 mph 21.9 mph N/A   Overcast
1:22 PM 41.0 °F 33.9 °F 28.4 °F 61% 29.58 in 10.0 mi West 12.7 mph 23.0 mph N/A   Overcast
1:43 PM 41.0 °F 32.5 °F 26.6 °F 57% 29.59 in 10.0 mi West 17.3 mph 28.8 mph N/A   Scattered Clouds
2:02 PM 41.0 °F 32.2 °F 28.4 °F 61% 29.60 in 10.0 mi West 18.4 mph 28.8 mph N/A   Clear
2:23 PM 39.2 °F 29.3 °F 26.6 °F 61% 29.61 in 10.0 mi West 20.7 mph 28.8 mph N/A   Scattered Clouds
2:43 PM 37.4 °F 28.5 °F 26.6 °F 65% 29.61 in 10.0 mi West 15.0 mph 31.1 mph N/A   Mostly Cloudy
3:02 PM 37.4 °F 29.3 °F 26.6 °F 65% 29.62 in 10.0 mi West 12.7 mph 23.0 mph N/A   Overcast
3:23 PM 37.4 °F 28.5 °F 24.8 °F 60% 29.63 in 10.0 mi West 15.0 mph 21.9 mph N/A   Overcast
3:43 PM 37.4 °F 29.8 °F 24.8 °F 60% 29.64 in 10.0 mi WNW 11.5 mph 23.0 mph N/A   Overcast
4:02 PM 35.6 °F 26.2 °F 24.8 °F 65% 29.65 in 10.0 mi WNW 15.0 mph 21.9 mph N/A   Overcast
4:23 PM 33.8 °F 22.8 °F 23.0 °F 65% 29.67 in 10.0 mi NNW 18.4 mph 25.3 mph N/A   Scattered Clouds
4:43 PM 32.0 °F 20.1 °F 21.2 °F 64% 29.69 in 10.0 mi NW 19.6 mph 28.8 mph N/A   Scattered Clouds
5:02 PM 32.0 °F 21.2 °F 21.2 °F 64% 29.71 in 10.0 mi NW 16.1 mph 25.3 mph N/A   Scattered Clouds
5:23 PM 32.0 °F 23.6 °F 21.2 °F 64% 29.72 in 10.0 mi WNW 10.4 mph 18.4 mph N/A   Scattered Clouds
5:43 PM 32.0 °F 23.6 °F 21.2 °F 64% 29.73 in 10.0 mi NW 10.4 mph - N/A   Clear
6:02 PM 32.0 °F 23.0 °F 21.2 °F 64% 29.74 in 10.0 mi WNW 11.5 mph 18.4 mph N/A   Clear
6:23 PM 32.0 °F 23.0 °F 21.2 °F 64% 29.75 in 10.0 mi NW 11.5 mph 19.6 mph N/A   Clear
6:43 PM 32.0 °F 21.6 °F 19.4 °F 60% 29.76 in 10.0 mi NW 15.0 mph 19.6 mph N/A   Clear
7:02 PM 32.0 °F 23.0 °F 19.4 °F 60% 29.77 in 10.0 mi NNW 11.5 mph 18.4 mph N/A   Clear
7:23 PM 30.2 °F 20.2 °F 19.4 °F 64% 29.79 in 10.0 mi NNW 12.7 mph 17.3 mph N/A   Clear
7:43 PM 30.2 °F 20.2 °F 19.4 °F 64% 29.80 in 10.0 mi NNW 12.7 mph 18.4 mph N/A   Clear
8:02 PM 30.2 °F 20.8 °F 19.4 °F 64% 29.82 in 10.0 mi NNW 11.5 mph 17.3 mph N/A   Clear
8:23 PM 30.2 °F 21.3 °F 17.6 °F 60% 29.83 in 10.0 mi NNW 10.4 mph - N/A   Clear
8:42 PM 28.4 °F 19.1 °F 17.6 °F 64% 29.84 in 10.0 mi NNW 10.4 mph - N/A   Clear
9:03 PM 28.4 °F 18.0 °F 17.6 °F 64% 29.86 in 10.0 mi NW 12.7 mph 19.6 mph N/A   Clear
9:23 PM 28.4 °F 19.1 °F 17.6 °F 64% 29.88 in 10.0 mi NW 10.4 mph 16.1 mph N/A   Mostly Cloudy
9:42 PM 28.4 °F 20.4 °F 17.6 °F 64% 29.88 in 10.0 mi NW 8.1 mph 16.1 mph N/A   Mostly Cloudy
10:03 PM 28.4 °F 21.2 °F 17.6 °F 64% 29.89 in 10.0 mi NNW 6.9 mph - N/A   Overcast
10:23 PM 26.6 °F 14.7 °F 15.8 °F 64% 29.91 in 10.0 mi NNW 15.0 mph 19.6 mph N/A   Mostly Cloudy
10:42 PM 26.6 °F 15.2 °F 15.8 °F 64% 29.92 in 10.0 mi NNW 13.8 mph 20.7 mph N/A   Mostly Cloudy
11:03 PM 26.6 °F 17.5 °F 15.8 °F 64% 29.93 in 10.0 mi NW 9.2 mph - N/A   Mostly Cloudy
11:23 PM 26.6 °F 17.5 °F 15.8 °F 64% 29.93 in 10.0 mi NW 9.2 mph - N/A   Overcast
11:42 PM 26.6 °F 17.5 °F 15.8 °F 64% 29.94 in 10.0 mi NW 9.2 mph - N/A   Overcast